Regional Weather Roundup
Issued by NWS

Home | Current Version | Previous Version | Text Only | Print | Product List | Glossary On
Versions: 1 2 3 4 5 6 7 8 9 10 11 12 13 14 15 16 17 18 19 20 21 22 23 24 25 26 27 28 29 30 31 32 33 34 35 36 37 38 39 40 41 42 43 44 45 46 47 48 49 50
000
ASUS42 KKEY 080410
RWRKEY

FLORIDA REGIONAL WEATHER ROUNDUP FOR THE FLORIDA KEYS
NATIONAL WEATHER SERVICE KEY WEST FLORIDA
1200 AM EDT WED JUL 08 2015

...SOUTH FLORIDA AND THE KEYS...

CITY           SKY/WX    TMP DP  RH WIND       PRES   REMARKS
FORT MYERS     CLEAR     77  73  87 NE5       30.17R
SW REGIONAL AP CLEAR     77  72  84 N6        30.17R
NAPLES         NOT AVBL
MIAMI          PTCLDY    83  72  69 E9        30.15R
WEST KENDALL   CLEAR     81  73  76 SE6       30.15R
HOMESTEAD      NOT AVBL
MARATHON       CLEAR     84  75  74 SE7       30.13S HX  92
BOCA CHICA NAS PTCLDY    83  73  72 E12       30.13S
KEY WEST INTL  CLEAR     84  73  69 E13       30.13S HX  90

...INTERNATIONAL WEATHER...

CITY           SKY/WX    TMP DP  RH WIND       PRES   REMARKS
NASSAU BAHAMAS PTCLDY    82  73  74 E8        30.16S
CANCUN MEXICO  PTCLDY    82  79  89 NE10      30.07R HX  93
COZUMEL MEXICO PTCLDY    79  77  94 CALM      30.06S

ADJACENT COASTAL WATERS...

STATION/POSITION TIME  SKY/WX   TEMP    WIND        PRES    WAVE
                                AIR SEA DIR/SP/G            HT/PER
                 (UTC)          (F)     (DEG/KT/KT) (MB)    (FT/S)
PULASKI SHOAL LI 0300            85     130/ 15/ 16 1019.7R
SAND KEY         0350            84     110/ 13/ 16 1020.0F
SOMBRERO KEY     0300            84     100/ 14/ 16 1021.0R
LONG KEY         0300            84 88  100/ 12/ 14 1021.2R
MOLASSES REEF    0300            84 86   90/ 10/ 11 1020.4R
FOWEY ROCKS      NOT AVBL

$$



USA.gov is the U.S. government's official web portal to all federal, state and local government web resources and services.